Location: Ammerl�gen
(47.2167°N, 9.6000°E)
Time: 15:18:44
(UTC+00:00)

Meteor 2-21 - Pass Details

Date: 21 April 2021
Orbit: 933 x 967 km, 82.5° (Epoch: 07 May)

Event Time Altitude Azimuth Distance (km) Brightness Sun altitude
Rises 20:02:23 0° 349° (N) 3,602 8.3 -16.1°
Reaches altitude 10° 20:04:52 10° 349° (N) 2,655 7.5 -16.4°
Maximum altitude 20:10:55 81° 263° (W) 954 4.5 -17.2°
Enters shadow 20:15:51 16° 178° (S) 2,230 6.0 -17.8°
